Weather History for KJFZ - March, 2013

Change the Weather History Date:

Tuesday, March 12, 2013

  Actual Average (KBLF) Record (KBLF)
Temperature  
Mean Temperature 40 °F 44 °F  
Max Temperature 48 °F 53 °F 79 °F (1990)
Min Temperature 32 °F 35 °F 8 °F (1969)
Degree Days  
Heating Degree Days 25 21  
Month to date heating degree days 273  
Since 1 July heating degree days 3766  
Cooling Degree Days 0 0  
Month to date cooling degree days 0  
Year to date cooling degree days 0  
Moisture  
Dew Point 34 °F    
Average Humidity 85    
Maximum Humidity 100    
Minimum Humidity 61    
Precipitation  
Precipitation 0.19 in 0.11 in 1.11 in (1974)
Month to date precipitation 1.33  
Year to date precipitation 6.99  
Snow  
Snow 0.00 in - - ()
Month to date snowfall  
Since 1 July snowfall  
Snow Depth -    
Sea Level Pressure  
Sea Level Pressure 29.91 in    
Wind  
Wind Speed 7 mph (WNW)    
Max Wind Speed 14 mph    
Max Gust Speed 18 mph    
Visibility 7 miles    
Events Fog , Rain , Snow    
T = Trace of Precipitation, MM = Missing Value Source: NWS Daily Summary

Daily Weather History Graph

Daily Weather History Graph

Search for Another Location

Airport or City:

Trip Planner

Search our weather history database for the weather conditions in past years. The results will help you decide how hot, cold, wet, or windy it might be!

Date:

Astronomy

Mar. 12, 2013 Rise Set
Actual Time 7:42 AM EDT 7:31 PM EDT
Civil Twilight 7:16 AM EDT 7:57 PM EDT
Nautical Twilight 6:46 AM EDT 8:28 PM EDT
Astronomical Twilight 6:15 AM EDT 8:58 PM EDT
Moon 7:50 AM EDT (3/12) 8:42 PM EDT (3/12)
Length of Visible Light 12h 41m
Length of Day
11h 49m
New Moon, 1% of the Moon is Illuminated
Mar 12
New Moon
Mar 19
First Quarter
Mar 27
Full
Apr 3
Last Quarter
Apr 10
New

Hourly Weather History & Observations

Time (EDT) Temp. Windchill Dew Point Humidity Pressure Visibility Wind Dir Wind Speed Gust Speed Precip Events Conditions
12:15 AM 48.2 °F - 46.9 °F 95% 29.81 in 10.0 mi WNW 4.6 mph - N/A   Overcast
12:55 AM 47.7 °F - 47.3 °F 99% 29.81 in 10.0 mi West 5.8 mph - N/A   Overcast
1:15 AM 47.5 °F - 47.3 °F 99% 29.82 in 10.0 mi West 4.6 mph - N/A   Overcast
1:35 AM 47.7 °F - 47.5 °F 99% 29.81 in 10.0 mi WSW 4.6 mph - N/A   Overcast
1:55 AM 47.5 °F - 47.5 °F 100% 29.81 in 7.0 mi Calm Calm - N/A   Overcast
2:15 AM 47.5 °F - 47.5 °F 100% 29.80 in 10.0 mi West 5.8 mph - N/A Rain Rain
2:35 AM 47.7 °F - 47.7 °F 100% 29.80 in 4.0 mi West 6.9 mph - N/A Rain Rain
2:55 AM 45.0 °F 40.1 °F 45.0 °F 100% 29.80 in 0.8 mi NNW 9.2 mph - 0.08 in Rain Rain
3:15 AM 43.9 °F 39.3 °F 43.9 °F 100% 29.80 in 4.0 mi NW 8.1 mph - 0.02 in Rain Light Rain
3:55 AM 41.2 °F 35.0 °F 41.0 °F 99% 29.82 in 5.0 mi NW 10.4 mph - 0.11 in Rain Light Rain
4:15 AM 40.3 °F 34.4 °F 40.3 °F 100% 29.81 in 5.0 mi NW 9.2 mph - N/A Rain Light Rain
4:35 AM 39.4 °F 32.3 °F 39.2 °F 99% 29.82 in 7.0 mi NNW 11.5 mph - N/A   Drizzle
4:55 AM 38.5 °F 33.4 °F 37.4 °F 96% 29.83 in 10.0 mi NNW 6.9 mph - N/A   Overcast
5:15 AM 37.4 °F 30.3 °F 36.9 °F 98% 29.83 in 10.0 mi NW 10.4 mph 17.3 mph N/A   Overcast
5:35 AM 36.3 °F 27.5 °F 36.0 °F 99% 29.84 in 5.0 mi NNW 13.8 mph - N/A   Light Drizzle
5:55 AM 35.8 °F 28.8 °F 35.8 °F 100% 29.86 in 0.2 mi NNW 9.2 mph - N/A Fog Fog
6:15 AM 35.1 °F 26.9 °F 35.1 °F 100% 29.86 in 0.5 mi NNW 11.5 mph 16.1 mph N/A Rain Light Rain
6:35 AM 34.5 °F 26.7 °F 34.5 °F 100% 29.87 in 1.5 mi NNW 10.4 mph - N/A Rain Rain
6:55 AM 34.0 °F 26.0 °F 33.8 °F 99% 29.87 in 7.0 mi NNW 10.4 mph - N/A   Overcast
7:15 AM 33.8 °F 27.0 °F 33.8 °F 100% 29.88 in 5.0 mi NNW 8.1 mph - N/A   Overcast
7:35 AM 33.6 °F 29.4 °F 33.6 °F 100% 29.88 in 2.0 mi NNW 4.6 mph - N/A   Overcast
7:55 AM 33.4 °F 27.3 °F 33.4 °F 100% 29.89 in 0.5 mi NW 6.9 mph - N/A Fog Fog
8:15 AM 33.3 °F 27.9 °F 33.3 °F 100% 29.89 in 0.5 mi NNW 5.8 mph - N/A Fog Fog
8:55 AM 32.9 °F 26.7 °F 32.9 °F 100% 29.92 in 1.8 mi WNW 6.9 mph - N/A Rain Light Rain
9:15 AM 33.3 °F 28.9 °F 33.3 °F 100% 29.92 in 1.5 mi NW 4.6 mph - N/A Snow Light Snow
9:35 AM 33.4 °F 29.1 °F 33.3 °F 99% 29.93 in 3.0 mi West 4.6 mph - N/A   Overcast
9:55 AM 33.8 °F 30.8 °F 33.8 °F 100% 29.93 in 2.5 mi West 3.5 mph - N/A   Overcast
10:15 AM 34.0 °F 31.0 °F 33.8 °F 99% 29.93 in 2.0 mi WSW 3.5 mph - N/A   Overcast
10:35 AM 34.2 °F 30.0 °F 34.0 °F 99% 29.93 in 2.0 mi WSW 4.6 mph - N/A Snow Light Snow
10:55 AM 34.3 °F 29.2 °F 34.0 °F 99% 29.93 in 1.8 mi West 5.8 mph - N/A Rain Light Rain
11:15 AM 34.7 °F 29.6 °F 34.5 °F 99% 29.93 in 2.5 mi West 5.8 mph - N/A Rain Light Rain
11:35 AM 34.7 °F 29.6 °F 34.7 °F 100% 29.94 in 3.0 mi West 5.8 mph - N/A Rain Light Rain
11:55 AM 35.1 °F 31.0 °F 34.9 °F 99% 29.94 in 3.0 mi West 4.6 mph - N/A Snow Light Snow
12:15 PM 35.4 °F 29.7 °F 34.2 °F 95% 29.93 in 5.0 mi West 6.9 mph - N/A Rain Light Rain
12:35 PM 35.6 °F 28.6 °F 34.2 °F 94% 29.94 in 7.0 mi West 9.2 mph - N/A Rain Light Rain
12:55 PM 34.9 °F 29.9 °F 33.1 °F 93% 29.94 in 10.0 mi WNW 5.8 mph - N/A   Overcast
1:15 PM 35.6 °F 29.2 °F 33.3 °F 91% 29.95 in 10.0 mi WNW 8.1 mph - N/A   Overcast
1:35 PM 35.8 °F 27.3 °F 32.0 °F 86% 29.96 in 10.0 mi NW 12.7 mph 18.4 mph N/A   Overcast
1:55 PM 35.8 °F 28.8 °F 31.3 °F 84% 29.96 in 10.0 mi West 9.2 mph - N/A   Overcast
2:15 PM 37.0 °F 32.4 °F 32.2 °F 83% 29.94 in 10.0 mi NW 5.8 mph 9.2 mph N/A   Overcast
2:35 PM 37.2 °F 33.6 °F 31.3 °F 79% 29.94 in 10.0 mi WNW 4.6 mph - N/A   Overcast
2:55 PM 38.5 °F 33.4 °F 32.4 °F 79% 29.93 in 10.0 mi West 6.9 mph - N/A   Overcast
3:15 PM 40.3 °F 33.9 °F 32.5 °F 74% 29.94 in 10.0 mi WSW 10.4 mph - N/A   Mostly Cloudy
3:35 PM 41.4 °F 36.2 °F 32.4 °F 70% 29.93 in 10.0 mi West 8.1 mph - N/A   Mostly Cloudy
3:55 PM 41.5 °F 37.1 °F 32.9 °F 71% 29.93 in 10.0 mi NW 6.9 mph - N/A   Unknown
4:15 PM 42.6 °F 38.4 °F 32.4 °F 67% 29.92 in 10.0 mi SW 6.9 mph - N/A   Scattered Clouds
4:35 PM 43.9 °F 39.3 °F 32.7 °F 65% 29.92 in 10.0 mi WNW 8.1 mph - N/A   Scattered Clouds
4:55 PM 43.3 °F 40.7 °F 31.6 °F 63% 29.92 in 10.0 mi WNW 4.6 mph - N/A   Scattered Clouds
5:15 PM 44.1 °F 40.1 °F 32.0 °F 63% 29.93 in 10.0 mi NW 6.9 mph - N/A   Scattered Clouds
5:35 PM 43.2 °F 37.4 °F 30.9 °F 62% 29.93 in 10.0 mi WNW 10.4 mph 16.1 mph N/A   Clear
5:55 PM 43.2 °F 38.4 °F 30.7 °F 62% 29.93 in 10.0 mi NW 8.1 mph - N/A   Clear
6:15 PM 42.4 °F 38.1 °F 29.8 °F 61% 29.94 in 10.0 mi NW 6.9 mph 18.4 mph N/A   Clear
6:35 PM 41.5 °F 36.4 °F 28.9 °F 61% 29.94 in 10.0 mi NW 8.1 mph - N/A   Clear
6:55 PM 40.6 °F 36.7 °F 28.4 °F 62% 29.95 in 10.0 mi WNW 5.8 mph 10.4 mph N/A   Clear
7:15 PM 39.4 °F 33.2 °F 27.9 °F 63% 29.96 in 10.0 mi NW 9.2 mph - N/A   Clear
7:35 PM 38.8 °F 32.6 °F 27.7 °F 64% 29.97 in 10.0 mi NW 9.2 mph - N/A   Clear
7:55 PM 37.9 °F 33.5 °F 27.9 °F 67% 29.97 in 10.0 mi WNW 5.8 mph - N/A   Clear
8:15 PM 37.6 °F 32.3 °F 28.2 °F 69% 29.98 in 10.0 mi West 6.9 mph - N/A   Clear
8:35 PM 36.9 °F 33.1 °F 28.2 °F 71% 29.98 in 10.0 mi WNW 4.6 mph - N/A   Clear
8:55 PM 37.0 °F 34.5 °F 28.4 °F 71% 29.98 in 10.0 mi WNW 3.5 mph - N/A   Clear
9:15 PM 36.5 °F 33.9 °F 28.4 °F 72% 29.99 in 10.0 mi WNW 3.5 mph - N/A   Clear
9:35 PM 36.3 °F 30.1 °F 28.2 °F 72% 29.99 in 10.0 mi West 8.1 mph - N/A   Clear
9:55 PM 36.5 °F 31.0 °F 28.0 °F 71% 29.99 in 10.0 mi West 6.9 mph - N/A   Clear
10:15 PM 35.8 °F 31.9 °F 27.7 °F 72% 29.99 in 10.0 mi WNW 4.6 mph - N/A   Clear
10:35 PM 35.8 °F 30.1 °F 27.5 °F 72% 30.00 in 10.0 mi West 6.9 mph - N/A   Clear
10:55 PM 35.6 °F 29.9 °F 27.5 °F 72% 30.00 in 10.0 mi West 6.9 mph - N/A   Clear
11:15 PM 35.6 °F 31.7 °F 27.5 °F 72% 30.00 in 10.0 mi WSW 4.6 mph - N/A   Clear
11:35 PM 35.6 °F 31.7 °F 27.5 °F 72% 30.00 in 10.0 mi WSW 4.6 mph - N/A   Clear
11:55 PM 35.1 °F 30.1 °F 27.5 °F 74% 30.00 in 10.0 mi West 5.8 mph - N/A   Clear